x

South Uist Range (03023) Weather Station

10:00am - Wed 4th Mar 2015 All times are GMT.

  • Wind
    14mph
  • Air Temp 42°f
  • Sea Pressure 1024mb
  • South Uist Range
  • South Uist Range

More Historic Weather Station data

Upgrade to MSW Pro to gain access to the past 30 days of data for over 8000 Wavebouys and Weather Stations around the globe.

Join Pro

Comparision Forecast

View Surf forecast
   
Wed 03/04 10:00am 14
mph
1024mb 42f
9:00am 9
mph
1023mb 44f
8:00am 14 29 mph 1021mb 42f
7:00am 11 29 mph 1020mb 42f
6:00am 23 33 mph 1018mb 42f
5:00am 22 32 mph 1017mb 42f
4:00am 19 30 mph 1015mb 41f
3:00am 17 40 mph 1014mb 42f
2:00am 22 36 mph 1012mb 42f
1:00am 24 36 mph 1011mb 42f
12:00am 24 43 mph 1010mb 41f
Tue 03/03 11:00pm 24 39 mph 1008mb 41f
10:00pm 31 41 mph 1007mb 42f
9:00pm 28 48 mph 1005mb 41f
8:00pm 25 44 mph 1003mb 43f
7:00pm 33 43 mph 1001mb 43f
6:00pm 34 48 mph 999mb 43f
5:00pm 36 47 mph 997mb 42f
4:00pm 39 54 mph 996mb 40f
3:00pm 34 49 mph 995mb 42f
2:00pm 37 48 mph 995mb 43f
1:00pm 32 61 mph 994mb 42f
12:00pm 38 59 mph 994mb 41f
11:00am 23 37 mph 995mb 40f
10:00am 22 39 mph 996mb 40f
9:00am 18 34 mph 996mb 39f
8:00am 29 44 mph 996mb 36f
7:00am 25 37 mph 996mb 36f
6:00am 29 38 mph 995mb 39f
5:00am 17 37 mph 996mb 37f
4:00am 25 33 mph 996mb 37f
3:00am 21 36 mph 996mb 35f
2:00am 22 30 mph 996mb 38f
1:00am 11 34 mph 996mb 35f
12:00am 14 41 mph 996mb 33f
Mon 03/02 11:00pm 30 37 mph 996mb 37f
10:00pm 24 33 mph 996mb 37f
9:00pm 24 31 mph 995mb 38f
8:00pm 18 39 mph 995mb 37f
7:00pm 23 40 mph 995mb 39f
6:00pm 18 44 mph 994mb 37f
5:00pm 30 44 mph 994mb 37f
4:00pm 25 44 mph 994mb 37f
3:00pm 32 45 mph 994mb 39f
2:00pm 28 53 mph 994mb 39f
1:00pm 24 39 mph 993mb 39f
12:00pm 33 48 mph 993mb 37f
11:00am 17 49 mph 992mb 37f
10:00am 26 46 mph 991mb 38f
9:00am 26 39 mph 990mb 35f
8:00am 11 31 mph 989mb 34f
7:00am 17
mph
988mb 34f
6:00am 13
mph
987mb 36f
5:00am 23 30 mph 987mb 36f
4:00am 14
mph
986mb 39f
3:00am 15
mph
987mb 39f
2:00am 15 34 mph 987mb 39f
1:00am 24 38 mph 987mb 40f
12:00am 23 32 mph 987mb 41f
Sun 03/01 11:00pm 24 37 mph 986mb 40f
10:00pm 30 39 mph 986mb 39f
9:00pm 29 48 mph 985mb 39f
8:00pm 32 41 mph 985mb 42f
7:00pm 30 45 mph 984mb 42f
6:00pm 36 46 mph 983mb 43f
5:00pm 31 51 mph 982mb 42f
4:00pm 32 49 mph 982mb 40f
3:00pm 34 45 mph 981mb 42f
2:00pm 32 45 mph 981mb 42f
1:00pm 29 40 mph 980mb 43f
12:00pm 29 41 mph 980mb 44f
11:00am 29 41 mph 980mb 43f
10:00am 32 49 mph 979mb 44f
9:00am 28 44 mph 979mb 44f
8:00am 28 44 mph 979mb 43f
7:00am 30 40 mph 979mb 44f
6:00am 31 40 mph 979mb 44f
5:00am 30 40 mph 979mb 41f
4:00am 26 41 mph 978mb 44f
3:00am 23 38 mph 978mb 44f
2:00am 24 45 mph 977mb 43f
1:00am 31 43 mph 976mb 43f
12:00am 26 45 mph 975mb 43f
Sat 02/28 11:00pm 31 41 mph 973mb 43f
10:00pm 28 47 mph 970mb 40f
9:00pm 17
mph
966mb 47f
8:00pm 21 39 mph 967mb 47f
7:00pm 26 39 mph 970mb 42f
6:00pm 24 38 mph 974mb 42f
5:00pm 22 31 mph 977mb 44f
4:00pm 19 32 mph 980mb 44f
3:00pm 21 31 mph 982mb 44f
2:00pm 23 31 mph 984mb 44f
1:00pm 21 32 mph 987mb 44f
12:00pm 26 36 mph 988mb 44f